STARLINK-32172, 61518

Orbit data source: Space-Track

STARLINK-32172, 61518 is a payload satellite owned by SpaceX/Seattle (US) in LEO that was launched on Tue, 15 Oct 2024 UTC via an FALCON 9 launch vehicle from the Air Force Eastern Test Range (AFETR). Payload-class satellites include a variety of spacecraft equipped with specific instruments for various scientific and technological missions. These include communications satellites like Starlink; space stations such as the ISS; scientific satellites like the Hubble; Earth observation satellites from companies like Planet Labs, Umbra, and HawkEye 360; GPS; miniature CubeSats for education and research; and military/defense satellites.

Loading next visibility...
Identifier
61518, 2024-183K
Orbit
LEO
Country
Flag of USUS
Related business
Manufacturer
SpaceX/Seattle
Mission
Operational Commercial Communications
Bus & Motor
STARLINK V2M, Unknown motor
Mass
730 kg wet, ~700 kg dry
Launch date (UTC)
2024-10-15 (2 years ago)
Launch vehicle
FALCON 9
Launch site
Air Force Eastern Test Range (AFETR)
Object type
Payload
Rocket body
Debris
Shape & HBR
Box + 2 Pan, 17.7 m
Radar Cross Section
33.884 m², Large (>1 m²)

Expand to show TLE details & history
Last TLE update: 16 hours ago

TLE from 16 hours ago
0 STARLINK-32172
1 61518U 24183K   26171.31185872  .00000469  00000-0  26889-4 0  9997
2 61518  53.1608  25.1163 0001323  85.6417 274.4736 15.31697594 95371
Epoch: 2026-06-20T07:29Z
TLE epoch observation values (Epoch: 2026-06-20T07:29:04.593Z)
Latitude
0.00002°
Longitude
4.31888°
Altitude
471.577 km
Speed
7.632 km/s
True Right ascension
01h 40m 27s
True Declination
0° 00' 00"
Sunlit
Object was in daylight at epoch
Visualization orbit readout
Latitude
Unknown
Longitude
Unknown
Altitude
Unknown
Speed
Unknown
Apparent Right ascension
Unknown
Apparent Declination
Unknown
Sunlit
N/A
Visualization observer readout
Local Sidereal Time
10:20:32
Azimuth
Unknown
Elevation
Unknown
Doppler factor
Unknown
Orbital elements
Apogee altitude
471.91 km
Perigee altitude
470.097 km
Semi-major axis
6,849.141 km
Eccentricity
0.00013
Inclination
53.1608°
RAAN
25.1163°
Arg. of periapsis
85.6417°
True anomaly
274.45849°
Mean anomaly
274.4736°
Eccentric anomaly
274.46604°
Mean motion
3.82903 °/min
Orbital period
94.02 mins
BSTAR
0.000026889
Loading maneuver chart data...
Computing Atmospheric mass density...
Loading historical data...
Loading historical data...
Loading historical data...
Loading historical data...
Loading historical data...
Loading historical data...
Loading historical data...

Documentation

Showing up to 5 results
|